Index of /20260426/WXO-DD/model_rdps/10km/18/053
Name Last modified Size Description
Parent Directory -
20260426T18Z_MSC_RDPS_AbsoluteVorticity_IsbL-0250_RLatLon0.09_PT053H.grib2 2026-04-26 21:36 631K
20260426T18Z_MSC_RDPS_AbsoluteVorticity_IsbL-0500_RLatLon0.09_PT053H.grib2 2026-04-26 21:36 577K
20260426T18Z_MSC_RDPS_AbsoluteVorticity_IsbL-0700_RLatLon0.09_PT053H.grib2 2026-04-26 21:36 627K
20260426T18Z_MSC_RDPS_AbsoluteVorticity_IsbL-0850_RLatLon0.09_PT053H.grib2 2026-04-26 21:36 775K
20260426T18Z_MSC_RDPS_AirTemp_AGL-120m_RLatLon0.09_PT053H.grib2 2026-04-26 21:36 391K
20260426T18Z_MSC_RDPS_AirTemp_AGL-2m_RLatLon0.09_PT053H.grib2 2026-04-26 21:36 623K
20260426T18Z_MSC_RDPS_AirTemp_AGL-40m_RLatLon0.09_PT053H.grib2 2026-04-26 21:36 400K
20260426T18Z_MSC_RDPS_AirTemp_AGL-80m_RLatLon0.09_PT053H.grib2 2026-04-26 21:36 394K
20260426T18Z_MSC_RDPS_AirTemp_IsbL-0001_RLatLon0.09_PT053H.grib2 2026-04-26 21:36 316K
20260426T18Z_MSC_RDPS_AirTemp_IsbL-0005_RLatLon0.09_PT053H.grib2 2026-04-26 21:36 298K
20260426T18Z_MSC_RDPS_AirTemp_IsbL-0010_RLatLon0.09_PT053H.grib2 2026-04-26 21:36 308K
20260426T18Z_MSC_RDPS_AirTemp_IsbL-0020_RLatLon0.09_PT053H.grib2 2026-04-26 21:36 323K
20260426T18Z_MSC_RDPS_AirTemp_IsbL-0030_RLatLon0.09_PT053H.grib2 2026-04-26 21:36 344K
20260426T18Z_MSC_RDPS_AirTemp_IsbL-0050_RLatLon0.09_PT053H.grib2 2026-04-26 21:36 319K
20260426T18Z_MSC_RDPS_AirTemp_IsbL-0100_RLatLon0.09_PT053H.grib2 2026-04-26 21:36 437K
20260426T18Z_MSC_RDPS_AirTemp_IsbL-0150_RLatLon0.09_PT053H.grib2 2026-04-26 21:36 437K
20260426T18Z_MSC_RDPS_AirTemp_IsbL-0175_RLatLon0.09_PT053H.grib2 2026-04-26 21:36 426K
20260426T18Z_MSC_RDPS_AirTemp_IsbL-0200_RLatLon0.09_PT053H.grib2 2026-04-26 21:36 429K
20260426T18Z_MSC_RDPS_AirTemp_IsbL-0225_RLatLon0.09_PT053H.grib2 2026-04-26 21:36 430K
20260426T18Z_MSC_RDPS_AirTemp_IsbL-0250_RLatLon0.09_PT053H.grib2 2026-04-26 21:36 440K
20260426T18Z_MSC_RDPS_AirTemp_IsbL-0275_RLatLon0.09_PT053H.grib2 2026-04-26 21:36 420K
20260426T18Z_MSC_RDPS_AirTemp_IsbL-0300_RLatLon0.09_PT053H.grib2 2026-04-26 21:36 425K
20260426T18Z_MSC_RDPS_AirTemp_IsbL-0350_RLatLon0.09_PT053H.grib2 2026-04-26 21:36 434K
20260426T18Z_MSC_RDPS_AirTemp_IsbL-0400_RLatLon0.09_PT053H.grib2 2026-04-26 21:36 434K
20260426T18Z_MSC_RDPS_AirTemp_IsbL-0450_RLatLon0.09_PT053H.grib2 2026-04-26 21:36 406K
20260426T18Z_MSC_RDPS_AirTemp_IsbL-0500_RLatLon0.09_PT053H.grib2 2026-04-26 21:36 415K
20260426T18Z_MSC_RDPS_AirTemp_IsbL-0550_RLatLon0.09_PT053H.grib2 2026-04-26 21:36 433K
20260426T18Z_MSC_RDPS_AirTemp_IsbL-0600_RLatLon0.09_PT053H.grib2 2026-04-26 21:36 451K
20260426T18Z_MSC_RDPS_AirTemp_IsbL-0650_RLatLon0.09_PT053H.grib2 2026-04-26 21:36 466K
20260426T18Z_MSC_RDPS_AirTemp_IsbL-0700_RLatLon0.09_PT053H.grib2 2026-04-26 21:36 490K
20260426T18Z_MSC_RDPS_AirTemp_IsbL-0750_RLatLon0.09_PT053H.grib2 2026-04-26 21:36 412K
20260426T18Z_MSC_RDPS_AirTemp_IsbL-0800_RLatLon0.09_PT053H.grib2 2026-04-26 21:36 451K
20260426T18Z_MSC_RDPS_AirTemp_IsbL-0850_RLatLon0.09_PT053H.grib2 2026-04-26 21:36 499K
20260426T18Z_MSC_RDPS_AirTemp_IsbL-0875_RLatLon0.09_PT053H.grib2 2026-04-26 21:36 520K
20260426T18Z_MSC_RDPS_AirTemp_IsbL-0900_RLatLon0.09_PT053H.grib2 2026-04-26 21:36 537K
20260426T18Z_MSC_RDPS_AirTemp_IsbL-0925_RLatLon0.09_PT053H.grib2 2026-04-26 21:36 535K
20260426T18Z_MSC_RDPS_AirTemp_IsbL-0950_RLatLon0.09_PT053H.grib2 2026-04-26 21:36 534K
20260426T18Z_MSC_RDPS_AirTemp_IsbL-0970_RLatLon0.09_PT053H.grib2 2026-04-26 21:36 527K
20260426T18Z_MSC_RDPS_AirTemp_IsbL-0985_RLatLon0.09_PT053H.grib2 2026-04-26 21:36 519K
20260426T18Z_MSC_RDPS_AirTemp_IsbL-1000_RLatLon0.09_PT053H.grib2 2026-04-26 21:36 507K
20260426T18Z_MSC_RDPS_AirTemp_IsbL-1015_RLatLon0.09_PT053H.grib2 2026-04-26 21:36 504K
20260426T18Z_MSC_RDPS_Albedo_Sfc_RLatLon0.09_PT053H.grib2 2026-04-26 21:36 156K
20260426T18Z_MSC_RDPS_CAPE_Sfc_RLatLon0.09_PT053H.grib2 2026-04-26 21:36 1.8M
20260426T18Z_MSC_RDPS_CIN_Sfc_RLatLon0.09_PT053H.grib2 2026-04-26 21:36 1.2M
20260426T18Z_MSC_RDPS_CloudWater_EAtm_RLatLon0.09_PT053H.grib2 2026-04-26 21:36 222K
20260426T18Z_MSC_RDPS_ConvectivePrecip-Accum_Sfc_RLatLon0.09_PT053H.grib2 2026-04-26 21:36 1.1M
20260426T18Z_MSC_RDPS_DewPointDepression_AGL-2m_RLatLon0.09_PT053H.grib2 2026-04-26 21:36 411K
20260426T18Z_MSC_RDPS_DewPointDepression_IsbL-0001_RLatLon0.09_PT053H.grib2 2026-04-26 21:36 193
20260426T18Z_MSC_RDPS_DewPointDepression_IsbL-0005_RLatLon0.09_PT053H.grib2 2026-04-26 21:36 193
20260426T18Z_MSC_RDPS_DewPointDepression_IsbL-0010_RLatLon0.09_PT053H.grib2 2026-04-26 21:36 193
20260426T18Z_MSC_RDPS_DewPointDepression_IsbL-0020_RLatLon0.09_PT053H.grib2 2026-04-26 21:36 193
20260426T18Z_MSC_RDPS_DewPointDepression_IsbL-0030_RLatLon0.09_PT053H.grib2 2026-04-26 21:36 193
20260426T18Z_MSC_RDPS_DewPointDepression_IsbL-0050_RLatLon0.09_PT053H.grib2 2026-04-26 21:36 96K
20260426T18Z_MSC_RDPS_DewPointDepression_IsbL-0100_RLatLon0.09_PT053H.grib2 2026-04-26 21:36 131K
20260426T18Z_MSC_RDPS_DewPointDepression_IsbL-0150_RLatLon0.09_PT053H.grib2 2026-04-26 21:36 154K
20260426T18Z_MSC_RDPS_DewPointDepression_IsbL-0175_RLatLon0.09_PT053H.grib2 2026-04-26 21:36 187K
20260426T18Z_MSC_RDPS_DewPointDepression_IsbL-0200_RLatLon0.09_PT053H.grib2 2026-04-26 21:36 223K
20260426T18Z_MSC_RDPS_DewPointDepression_IsbL-0225_RLatLon0.09_PT053H.grib2 2026-04-26 21:36 271K
20260426T18Z_MSC_RDPS_DewPointDepression_IsbL-0250_RLatLon0.09_PT053H.grib2 2026-04-26 21:36 309K
20260426T18Z_MSC_RDPS_DewPointDepression_IsbL-0275_RLatLon0.09_PT053H.grib2 2026-04-26 21:36 314K
20260426T18Z_MSC_RDPS_DewPointDepression_IsbL-0300_RLatLon0.09_PT053H.grib2 2026-04-26 21:36 331K
20260426T18Z_MSC_RDPS_DewPointDepression_IsbL-0350_RLatLon0.09_PT053H.grib2 2026-04-26 21:36 336K
20260426T18Z_MSC_RDPS_DewPointDepression_IsbL-0400_RLatLon0.09_PT053H.grib2 2026-04-26 21:36 346K
20260426T18Z_MSC_RDPS_DewPointDepression_IsbL-0450_RLatLon0.09_PT053H.grib2 2026-04-26 21:36 356K
20260426T18Z_MSC_RDPS_DewPointDepression_IsbL-0500_RLatLon0.09_PT053H.grib2 2026-04-26 21:36 364K
20260426T18Z_MSC_RDPS_DewPointDepression_IsbL-0550_RLatLon0.09_PT053H.grib2 2026-04-26 21:36 376K
20260426T18Z_MSC_RDPS_DewPointDepression_IsbL-0600_RLatLon0.09_PT053H.grib2 2026-04-26 21:36 384K
20260426T18Z_MSC_RDPS_DewPointDepression_IsbL-0650_RLatLon0.09_PT053H.grib2 2026-04-26 21:36 388K
20260426T18Z_MSC_RDPS_DewPointDepression_IsbL-0700_RLatLon0.09_PT053H.grib2 2026-04-26 21:36 403K
20260426T18Z_MSC_RDPS_DewPointDepression_IsbL-0750_RLatLon0.09_PT053H.grib2 2026-04-26 21:36 424K
20260426T18Z_MSC_RDPS_DewPointDepression_IsbL-0800_RLatLon0.09_PT053H.grib2 2026-04-26 21:36 450K
20260426T18Z_MSC_RDPS_DewPointDepression_IsbL-0850_RLatLon0.09_PT053H.grib2 2026-04-26 21:36 472K
20260426T18Z_MSC_RDPS_DewPointDepression_IsbL-0875_RLatLon0.09_PT053H.grib2 2026-04-26 21:36 474K
20260426T18Z_MSC_RDPS_DewPointDepression_IsbL-0900_RLatLon0.09_PT053H.grib2 2026-04-26 21:36 467K
20260426T18Z_MSC_RDPS_DewPointDepression_IsbL-0925_RLatLon0.09_PT053H.grib2 2026-04-26 21:36 453K
20260426T18Z_MSC_RDPS_DewPointDepression_IsbL-0950_RLatLon0.09_PT053H.grib2 2026-04-26 21:36 441K
20260426T18Z_MSC_RDPS_DewPointDepression_IsbL-0970_RLatLon0.09_PT053H.grib2 2026-04-26 21:36 430K
20260426T18Z_MSC_RDPS_DewPointDepression_IsbL-0985_RLatLon0.09_PT053H.grib2 2026-04-26 21:36 424K
20260426T18Z_MSC_RDPS_DewPointDepression_IsbL-1000_RLatLon0.09_PT053H.grib2 2026-04-26 21:36 421K
20260426T18Z_MSC_RDPS_DewPointDepression_IsbL-1015_RLatLon0.09_PT053H.grib2 2026-04-26 21:36 414K
20260426T18Z_MSC_RDPS_DewPoint_AGL-2m_RLatLon0.09_PT053H.grib2 2026-04-26 21:36 309K
20260426T18Z_MSC_RDPS_DownwardLongwaveRadiationFlux-Accum_Sfc_RLatLon0.09_PT053H.grib2 2026-04-26 21:36 385K
20260426T18Z_MSC_RDPS_DownwardShortwaveRadiationFlux-Accum_NTAtm_RLatLon0.09_PT053H.grib2 2026-04-26 21:36 108K
20260426T18Z_MSC_RDPS_DownwardShortwaveRadiationFlux-Accum_Sfc_RLatLon0.09_PT053H.grib2 2026-04-26 21:36 592K
20260426T18Z_MSC_RDPS_FreezingRain-Accum1h_Sfc_RLatLon0.09_PT053H.grib2 2026-04-26 21:36 16K
20260426T18Z_MSC_RDPS_FreezingRain-Accum_Sfc_RLatLon0.09_PT053H.grib2 2026-04-26 21:36 164K
20260426T18Z_MSC_RDPS_GeopotentialHeight_IsbL-0001_RLatLon0.09_PT053H.grib2 2026-04-26 21:36 276K
20260426T18Z_MSC_RDPS_GeopotentialHeight_IsbL-0005_RLatLon0.09_PT053H.grib2 2026-04-26 21:36 314K
20260426T18Z_MSC_RDPS_GeopotentialHeight_IsbL-0010_RLatLon0.09_PT053H.grib2 2026-04-26 21:36 343K
20260426T18Z_MSC_RDPS_GeopotentialHeight_IsbL-0020_RLatLon0.09_PT053H.grib2 2026-04-26 21:36 309K
20260426T18Z_MSC_RDPS_GeopotentialHeight_IsbL-0030_RLatLon0.09_PT053H.grib2 2026-04-26 21:36 310K
20260426T18Z_MSC_RDPS_GeopotentialHeight_IsbL-0050_RLatLon0.09_PT053H.grib2 2026-04-26 21:36 344K
20260426T18Z_MSC_RDPS_GeopotentialHeight_IsbL-0100_RLatLon0.09_PT053H.grib2 2026-04-26 21:36 293K
20260426T18Z_MSC_RDPS_GeopotentialHeight_IsbL-0150_RLatLon0.09_PT053H.grib2 2026-04-26 21:36 234K
20260426T18Z_MSC_RDPS_GeopotentialHeight_IsbL-0175_RLatLon0.09_PT053H.grib2 2026-04-26 21:36 268K
20260426T18Z_MSC_RDPS_GeopotentialHeight_IsbL-0200_RLatLon0.09_PT053H.grib2 2026-04-26 21:36 271K
20260426T18Z_MSC_RDPS_GeopotentialHeight_IsbL-0225_RLatLon0.09_PT053H.grib2 2026-04-26 21:36 272K
20260426T18Z_MSC_RDPS_GeopotentialHeight_IsbL-0250_RLatLon0.09_PT053H.grib2 2026-04-26 21:36 272K
20260426T18Z_MSC_RDPS_GeopotentialHeight_IsbL-0275_RLatLon0.09_PT053H.grib2 2026-04-26 21:36 271K
20260426T18Z_MSC_RDPS_GeopotentialHeight_IsbL-0300_RLatLon0.09_PT053H.grib2 2026-04-26 21:36 270K
20260426T18Z_MSC_RDPS_GeopotentialHeight_IsbL-0350_RLatLon0.09_PT053H.grib2 2026-04-26 21:36 237K
20260426T18Z_MSC_RDPS_GeopotentialHeight_IsbL-0400_RLatLon0.09_PT053H.grib2 2026-04-26 21:36 233K
20260426T18Z_MSC_RDPS_GeopotentialHeight_IsbL-0450_RLatLon0.09_PT053H.grib2 2026-04-26 21:36 301K
20260426T18Z_MSC_RDPS_GeopotentialHeight_IsbL-0500_RLatLon0.09_PT053H.grib2 2026-04-26 21:36 296K
20260426T18Z_MSC_RDPS_GeopotentialHeight_IsbL-0550_RLatLon0.09_PT053H.grib2 2026-04-26 21:36 292K
20260426T18Z_MSC_RDPS_GeopotentialHeight_IsbL-0600_RLatLon0.09_PT053H.grib2 2026-04-26 21:36 288K
20260426T18Z_MSC_RDPS_GeopotentialHeight_IsbL-0650_RLatLon0.09_PT053H.grib2 2026-04-26 21:36 258K
20260426T18Z_MSC_RDPS_GeopotentialHeight_IsbL-0700_RLatLon0.09_PT053H.grib2 2026-04-26 21:36 257K
20260426T18Z_MSC_RDPS_GeopotentialHeight_IsbL-0750_RLatLon0.09_PT053H.grib2 2026-04-26 21:36 340K
20260426T18Z_MSC_RDPS_GeopotentialHeight_IsbL-0800_RLatLon0.09_PT053H.grib2 2026-04-26 21:36 345K
20260426T18Z_MSC_RDPS_GeopotentialHeight_IsbL-0850_RLatLon0.09_PT053H.grib2 2026-04-26 21:36 354K
20260426T18Z_MSC_RDPS_GeopotentialHeight_IsbL-0875_RLatLon0.09_PT053H.grib2 2026-04-26 21:36 356K
20260426T18Z_MSC_RDPS_GeopotentialHeight_IsbL-0900_RLatLon0.09_PT053H.grib2 2026-04-26 21:36 363K
20260426T18Z_MSC_RDPS_GeopotentialHeight_IsbL-0925_RLatLon0.09_PT053H.grib2 2026-04-26 21:36 364K
20260426T18Z_MSC_RDPS_GeopotentialHeight_IsbL-0950_RLatLon0.09_PT053H.grib2 2026-04-26 21:36 370K
20260426T18Z_MSC_RDPS_GeopotentialHeight_IsbL-0970_RLatLon0.09_PT053H.grib2 2026-04-26 21:36 376K
20260426T18Z_MSC_RDPS_GeopotentialHeight_IsbL-0985_RLatLon0.09_PT053H.grib2 2026-04-26 21:36 384K
20260426T18Z_MSC_RDPS_GeopotentialHeight_IsbL-1000_RLatLon0.09_PT053H.grib2 2026-04-26 21:36 395K
20260426T18Z_MSC_RDPS_GeopotentialHeight_IsbL-1015_RLatLon0.09_PT053H.grib2 2026-04-26 21:36 409K
20260426T18Z_MSC_RDPS_Humidex_Sfc_RLatLon0.09_PT053H.grib2 2026-04-26 21:36 2.2M
20260426T18Z_MSC_RDPS_IcePellets-Accum1h_Sfc_RLatLon0.09_PT053H.grib2 2026-04-26 21:36 4.9K
20260426T18Z_MSC_RDPS_IcePellets-Accum_Sfc_RLatLon0.09_PT053H.grib2 2026-04-26 21:36 29K
20260426T18Z_MSC_RDPS_KIndex_Sfc_RLatLon0.09_PT053H.grib2 2026-04-26 21:36 2.5M
20260426T18Z_MSC_RDPS_LatentHeatNetFlux_Sfc_RLatLon0.09_PT053H.grib2 2026-04-26 21:36 366K
20260426T18Z_MSC_RDPS_LiftedIndex-MU-VT_IsbL-0500_RLatLon0.09_PT053H.grib2 2026-04-26 21:36 2.4M
20260426T18Z_MSC_RDPS_NetLongwaveRadiationFlux-Accum_Sfc_RLatLon0.09_PT053H.grib2 2026-04-26 21:36 571K
20260426T18Z_MSC_RDPS_NetShortwaveRadiationFlux-Accum_Sfc_RLatLon0.09_PT053H.grib2 2026-04-26 21:36 594K
20260426T18Z_MSC_RDPS_PlanetaryBoundaryLayerHeight_Sfc_RLatLon0.09_PT053H.grib2 2026-04-26 21:36 1.0M
20260426T18Z_MSC_RDPS_Precip-Accum1h_Sfc_RLatLon0.09_PT053H.grib2 2026-04-26 21:36 1.2M
20260426T18Z_MSC_RDPS_Precip-Accum_Sfc_RLatLon0.09_PT053H.grib2 2026-04-26 21:36 2.1M
20260426T18Z_MSC_RDPS_PrecipRate_Sfc_RLatLon0.09_PT053H.grib2 2026-04-26 21:36 132K
20260426T18Z_MSC_RDPS_PrecipType-Instant_Sfc_RLatLon0.09_PT053H.grib2 2026-04-26 21:36 553K
20260426T18Z_MSC_RDPS_Pressure-Trend3h_Sfc_RLatLon0.09_PT053H.grib2 2026-04-26 21:36 1.2M
20260426T18Z_MSC_RDPS_Pressure_MSL_RLatLon0.09_PT053H.grib2 2026-04-26 21:36 329K
20260426T18Z_MSC_RDPS_Pressure_PVU-1.5_RLatLon0.09_PT053H.grib2 2026-04-26 21:36 2.3M
20260426T18Z_MSC_RDPS_Pressure_PVU-1_RLatLon0.09_PT053H.grib2 2026-04-26 21:36 2.4M
20260426T18Z_MSC_RDPS_Pressure_PVU-2_RLatLon0.09_PT053H.grib2 2026-04-26 21:36 2.4M
20260426T18Z_MSC_RDPS_Pressure_Sfc_RLatLon0.09_PT053H.grib2 2026-04-26 21:36 500K
20260426T18Z_MSC_RDPS_RadiativeTemp_Sfc_RLatLon0.09_PT053H.grib2 2026-04-26 21:36 316K
20260426T18Z_MSC_RDPS_Rain-Accum1h_Sfc_RLatLon0.09_PT053H.grib2 2026-04-26 21:36 594K
20260426T18Z_MSC_RDPS_Rain-Accum_Sfc_RLatLon0.09_PT053H.grib2 2026-04-26 21:36 1.6M
20260426T18Z_MSC_RDPS_RelativeHumidity_AGL-2m_RLatLon0.09_PT053H.grib2 2026-04-26 21:36 1.0M
20260426T18Z_MSC_RDPS_RelativeHumidity_IsbL-0010_RLatLon0.09_PT053H.grib2 2026-04-26 21:36 618K
20260426T18Z_MSC_RDPS_RelativeHumidity_IsbL-0020_RLatLon0.09_PT053H.grib2 2026-04-26 21:36 646K
20260426T18Z_MSC_RDPS_RelativeHumidity_IsbL-0030_RLatLon0.09_PT053H.grib2 2026-04-26 21:36 542K
20260426T18Z_MSC_RDPS_RelativeHumidity_IsbL-0050_RLatLon0.09_PT053H.grib2 2026-04-26 21:36 254K
20260426T18Z_MSC_RDPS_RelativeHumidity_IsbL-0100_RLatLon0.09_PT053H.grib2 2026-04-26 21:36 283K
20260426T18Z_MSC_RDPS_RelativeHumidity_IsbL-0150_RLatLon0.09_PT053H.grib2 2026-04-26 21:36 425K
20260426T18Z_MSC_RDPS_RelativeHumidity_IsbL-0175_RLatLon0.09_PT053H.grib2 2026-04-26 21:36 499K
20260426T18Z_MSC_RDPS_RelativeHumidity_IsbL-0200_RLatLon0.09_PT053H.grib2 2026-04-26 21:36 565K
20260426T18Z_MSC_RDPS_RelativeHumidity_IsbL-0225_RLatLon0.09_PT053H.grib2 2026-04-26 21:36 630K
20260426T18Z_MSC_RDPS_RelativeHumidity_IsbL-0250_RLatLon0.09_PT053H.grib2 2026-04-26 21:36 697K
20260426T18Z_MSC_RDPS_RelativeHumidity_IsbL-0275_RLatLon0.09_PT053H.grib2 2026-04-26 21:36 726K
20260426T18Z_MSC_RDPS_RelativeHumidity_IsbL-0300_RLatLon0.09_PT053H.grib2 2026-04-26 21:36 770K
20260426T18Z_MSC_RDPS_RelativeHumidity_IsbL-0350_RLatLon0.09_PT053H.grib2 2026-04-26 21:36 789K
20260426T18Z_MSC_RDPS_RelativeHumidity_IsbL-0400_RLatLon0.09_PT053H.grib2 2026-04-26 21:36 801K
20260426T18Z_MSC_RDPS_RelativeHumidity_IsbL-0450_RLatLon0.09_PT053H.grib2 2026-04-26 21:36 807K
20260426T18Z_MSC_RDPS_RelativeHumidity_IsbL-0500_RLatLon0.09_PT053H.grib2 2026-04-26 21:36 815K
20260426T18Z_MSC_RDPS_RelativeHumidity_IsbL-0550_RLatLon0.09_PT053H.grib2 2026-04-26 21:36 833K
20260426T18Z_MSC_RDPS_RelativeHumidity_IsbL-0600_RLatLon0.09_PT053H.grib2 2026-04-26 21:36 848K
20260426T18Z_MSC_RDPS_RelativeHumidity_IsbL-0650_RLatLon0.09_PT053H.grib2 2026-04-26 21:36 859K
20260426T18Z_MSC_RDPS_RelativeHumidity_IsbL-0700_RLatLon0.09_PT053H.grib2 2026-04-26 21:36 894K
20260426T18Z_MSC_RDPS_RelativeHumidity_IsbL-0750_RLatLon0.09_PT053H.grib2 2026-04-26 21:36 935K
20260426T18Z_MSC_RDPS_RelativeHumidity_IsbL-0800_RLatLon0.09_PT053H.grib2 2026-04-26 21:36 1.0M
20260426T18Z_MSC_RDPS_RelativeHumidity_IsbL-0850_RLatLon0.09_PT053H.grib2 2026-04-26 21:36 1.0M
20260426T18Z_MSC_RDPS_RelativeHumidity_IsbL-0875_RLatLon0.09_PT053H.grib2 2026-04-26 21:36 1.1M
20260426T18Z_MSC_RDPS_RelativeHumidity_IsbL-0900_RLatLon0.09_PT053H.grib2 2026-04-26 21:36 1.1M
20260426T18Z_MSC_RDPS_RelativeHumidity_IsbL-0925_RLatLon0.09_PT053H.grib2 2026-04-26 21:36 1.1M
20260426T18Z_MSC_RDPS_RelativeHumidity_IsbL-0950_RLatLon0.09_PT053H.grib2 2026-04-26 21:36 1.1M
20260426T18Z_MSC_RDPS_RelativeHumidity_IsbL-0970_RLatLon0.09_PT053H.grib2 2026-04-26 21:36 1.0M
20260426T18Z_MSC_RDPS_RelativeHumidity_IsbL-0985_RLatLon0.09_PT053H.grib2 2026-04-26 21:36 1.0M
20260426T18Z_MSC_RDPS_RelativeHumidity_IsbL-1000_RLatLon0.09_PT053H.grib2 2026-04-26 21:36 1.0M
20260426T18Z_MSC_RDPS_RelativeHumidity_IsbL-1015_RLatLon0.09_PT053H.grib2 2026-04-26 21:36 1.0M
20260426T18Z_MSC_RDPS_Runoff-Accum_Sfc_RLatLon0.09_PT053H.grib2 2026-04-26 21:36 52K
20260426T18Z_MSC_RDPS_SWEATIndex_Sfc_RLatLon0.09_PT053H.grib2 2026-04-26 21:37 2.4M
20260426T18Z_MSC_RDPS_SeeingIndex_EAtm_RLatLon0.09_PT053H.grib2 2026-04-26 21:36 1.0M
20260426T18Z_MSC_RDPS_SensibleHeatNetFlux_Sfc_RLatLon0.09_PT053H.grib2 2026-04-26 21:36 334K
20260426T18Z_MSC_RDPS_ShowalterIndex_IsbL-0500_RLatLon0.09_PT053H.grib2 2026-04-26 21:36 2.6M
20260426T18Z_MSC_RDPS_SkyTransparencyIndex_EAtm_RLatLon0.09_PT053H.grib2 2026-04-26 21:36 688K
20260426T18Z_MSC_RDPS_Snow-Accum1h_Sfc_RLatLon0.09_PT053H.grib2 2026-04-26 21:36 542K
20260426T18Z_MSC_RDPS_Snow-Accum_Sfc_RLatLon0.09_PT053H.grib2 2026-04-26 21:36 810K
20260426T18Z_MSC_RDPS_SnowDensity_Sfc_RLatLon0.09_PT053H.grib2 2026-04-26 21:36 186K
20260426T18Z_MSC_RDPS_SnowDepth_Sfc_RLatLon0.09_PT053H.grib2 2026-04-26 21:36 708K
20260426T18Z_MSC_RDPS_SoilTemp_DBS-0to10cm_RLatLon0.09_PT053H.grib2 2026-04-26 21:36 243K
20260426T18Z_MSC_RDPS_SoilTemp_Sfc_RLatLon0.09_PT053H.grib2 2026-04-26 21:36 286K
20260426T18Z_MSC_RDPS_SoilVolumetricIceContent_Sfc_RLatLon0.09_PT053H.grib2 2026-04-26 21:36 167K
20260426T18Z_MSC_RDPS_SoilVolumetricWaterContent_DBS-0to10cm_RLatLon0.09_PT053H.grib2 2026-04-26 21:36 263K
20260426T18Z_MSC_RDPS_SoilVolumetricWaterContent_DBS-0to1cm_RLatLon0.09_PT053H.grib2 2026-04-26 21:36 340K
20260426T18Z_MSC_RDPS_SpecificHumidity_AGL-120m_RLatLon0.09_PT053H.grib2 2026-04-26 21:36 487K
20260426T18Z_MSC_RDPS_SpecificHumidity_AGL-2m_RLatLon0.09_PT053H.grib2 2026-04-26 21:36 656K
20260426T18Z_MSC_RDPS_SpecificHumidity_AGL-40m_RLatLon0.09_PT053H.grib2 2026-04-26 21:36 493K
20260426T18Z_MSC_RDPS_SpecificHumidity_AGL-80m_RLatLon0.09_PT053H.grib2 2026-04-26 21:36 489K
20260426T18Z_MSC_RDPS_SpecificHumidity_IsbL-0001_RLatLon0.09_PT053H.grib2 2026-04-26 21:36 346K
20260426T18Z_MSC_RDPS_SpecificHumidity_IsbL-0005_RLatLon0.09_PT053H.grib2 2026-04-26 21:36 353K
20260426T18Z_MSC_RDPS_SpecificHumidity_IsbL-0010_RLatLon0.09_PT053H.grib2 2026-04-26 21:36 396K
20260426T18Z_MSC_RDPS_SpecificHumidity_IsbL-0020_RLatLon0.09_PT053H.grib2 2026-04-26 21:36 384K
20260426T18Z_MSC_RDPS_SpecificHumidity_IsbL-0030_RLatLon0.09_PT053H.grib2 2026-04-26 21:36 445K
20260426T18Z_MSC_RDPS_SpecificHumidity_IsbL-0050_RLatLon0.09_PT053H.grib2 2026-04-26 21:36 488K
20260426T18Z_MSC_RDPS_SpecificHumidity_IsbL-0100_RLatLon0.09_PT053H.grib2 2026-04-26 21:36 380K
20260426T18Z_MSC_RDPS_SpecificHumidity_IsbL-0150_RLatLon0.09_PT053H.grib2 2026-04-26 21:36 385K
20260426T18Z_MSC_RDPS_SpecificHumidity_IsbL-0175_RLatLon0.09_PT053H.grib2 2026-04-26 21:36 473K
20260426T18Z_MSC_RDPS_SpecificHumidity_IsbL-0200_RLatLon0.09_PT053H.grib2 2026-04-26 21:36 468K
20260426T18Z_MSC_RDPS_SpecificHumidity_IsbL-0225_RLatLon0.09_PT053H.grib2 2026-04-26 21:37 468K
20260426T18Z_MSC_RDPS_SpecificHumidity_IsbL-0250_RLatLon0.09_PT053H.grib2 2026-04-26 21:37 567K
20260426T18Z_MSC_RDPS_SpecificHumidity_IsbL-0275_RLatLon0.09_PT053H.grib2 2026-04-26 21:37 481K
20260426T18Z_MSC_RDPS_SpecificHumidity_IsbL-0300_RLatLon0.09_PT053H.grib2 2026-04-26 21:37 453K
20260426T18Z_MSC_RDPS_SpecificHumidity_IsbL-0350_RLatLon0.09_PT053H.grib2 2026-04-26 21:37 446K
20260426T18Z_MSC_RDPS_SpecificHumidity_IsbL-0400_RLatLon0.09_PT053H.grib2 2026-04-26 21:37 526K
20260426T18Z_MSC_RDPS_SpecificHumidity_IsbL-0450_RLatLon0.09_PT053H.grib2 2026-04-26 21:37 579K
20260426T18Z_MSC_RDPS_SpecificHumidity_IsbL-0500_RLatLon0.09_PT053H.grib2 2026-04-26 21:37 517K
20260426T18Z_MSC_RDPS_SpecificHumidity_IsbL-0550_RLatLon0.09_PT053H.grib2 2026-04-26 21:37 591K
20260426T18Z_MSC_RDPS_SpecificHumidity_IsbL-0600_RLatLon0.09_PT053H.grib2 2026-04-26 21:37 641K
20260426T18Z_MSC_RDPS_SpecificHumidity_IsbL-0650_RLatLon0.09_PT053H.grib2 2026-04-26 21:37 559K
20260426T18Z_MSC_RDPS_SpecificHumidity_IsbL-0700_RLatLon0.09_PT053H.grib2 2026-04-26 21:37 604K
20260426T18Z_MSC_RDPS_SpecificHumidity_IsbL-0750_RLatLon0.09_PT053H.grib2 2026-04-26 21:37 658K
20260426T18Z_MSC_RDPS_SpecificHumidity_IsbL-0800_RLatLon0.09_PT053H.grib2 2026-04-26 21:37 734K
20260426T18Z_MSC_RDPS_SpecificHumidity_IsbL-0850_RLatLon0.09_PT053H.grib2 2026-04-26 21:37 669K
20260426T18Z_MSC_RDPS_SpecificHumidity_IsbL-0875_RLatLon0.09_PT053H.grib2 2026-04-26 21:37 694K
20260426T18Z_MSC_RDPS_SpecificHumidity_IsbL-0900_RLatLon0.09_PT053H.grib2 2026-04-26 21:37 706K
20260426T18Z_MSC_RDPS_SpecificHumidity_IsbL-0925_RLatLon0.09_PT053H.grib2 2026-04-26 21:37 707K
20260426T18Z_MSC_RDPS_SpecificHumidity_IsbL-0950_RLatLon0.09_PT053H.grib2 2026-04-26 21:37 704K
20260426T18Z_MSC_RDPS_SpecificHumidity_IsbL-0970_RLatLon0.09_PT053H.grib2 2026-04-26 21:37 692K
20260426T18Z_MSC_RDPS_SpecificHumidity_IsbL-0985_RLatLon0.09_PT053H.grib2 2026-04-26 21:37 683K
20260426T18Z_MSC_RDPS_SpecificHumidity_IsbL-1000_RLatLon0.09_PT053H.grib2 2026-04-26 21:37 678K
20260426T18Z_MSC_RDPS_SpecificHumidity_IsbL-1015_RLatLon0.09_PT053H.grib2 2026-04-26 21:37 669K
20260426T18Z_MSC_RDPS_SpecificHumidity_Sfc_RLatLon0.09_PT053H.grib2 2026-04-26 21:37 333K
20260426T18Z_MSC_RDPS_StormRelativeHelicity_EtaL-10000_RLatLon0.09_PT053H.grib2 2026-04-26 21:37 1.1M
20260426T18Z_MSC_RDPS_StormSeverityIndex_EtaL-10000_RLatLon0.09_PT053H.grib2 2026-04-26 21:37 1.1M
20260426T18Z_MSC_RDPS_Thickness_IsbL-0850to0700_RLatLon0.09_PT053H.grib2 2026-04-26 21:37 177K
20260426T18Z_MSC_RDPS_Thickness_IsbL-1000to0500_RLatLon0.09_PT053H.grib2 2026-04-26 21:37 202K
20260426T18Z_MSC_RDPS_Thickness_IsbL-1000to0850_RLatLon0.09_PT053H.grib2 2026-04-26 21:37 186K
20260426T18Z_MSC_RDPS_TotalCloudCover_Sfc_RLatLon0.09_PT053H.grib2 2026-04-26 21:37 650K
20260426T18Z_MSC_RDPS_TotalTotalsIndex_Sfc_RLatLon0.09_PT053H.grib2 2026-04-26 21:37 2.4M
20260426T18Z_MSC_RDPS_UVIndex-ClearSky_Sfc_RLatLon0.09_PT053H.grib2 2026-04-26 21:37 201K
20260426T18Z_MSC_RDPS_UVIndex_Sfc_RLatLon0.09_PT053H.grib2 2026-04-26 21:37 443K
20260426T18Z_MSC_RDPS_UpwardLongwaveRadiationFlux_NTAtm_RLatLon0.09_PT053H.grib2 2026-04-26 21:37 389K
20260426T18Z_MSC_RDPS_UpwardShortwaveRadiationFlux_NTAtm_RLatLon0.09_PT053H.grib2 2026-04-26 21:37 396K
20260426T18Z_MSC_RDPS_VerticalVelocity_IsbL-0250_RLatLon0.09_PT053H.grib2 2026-04-26 21:37 462K
20260426T18Z_MSC_RDPS_VerticalVelocity_IsbL-0500_RLatLon0.09_PT053H.grib2 2026-04-26 21:37 553K
20260426T18Z_MSC_RDPS_VerticalVelocity_IsbL-0700_RLatLon0.09_PT053H.grib2 2026-04-26 21:37 602K
20260426T18Z_MSC_RDPS_VerticalVelocity_IsbL-0850_RLatLon0.09_PT053H.grib2 2026-04-26 21:37 667K
20260426T18Z_MSC_RDPS_VerticalWindShear_EtaL-6500_RLatLon0.09_PT053H.grib2 2026-04-26 21:37 1.2M
20260426T18Z_MSC_RDPS_WindChill_Sfc_RLatLon0.09_PT053H.grib2 2026-04-26 21:37 1.1M
20260426T18Z_MSC_RDPS_WindDir_AGL-10m_RLatLon0.09_PT053H.grib2 2026-04-26 21:37 956K
20260426T18Z_MSC_RDPS_WindDir_AGL-120m_RLatLon0.09_PT053H.grib2 2026-04-26 21:37 604K
20260426T18Z_MSC_RDPS_WindDir_AGL-40m_RLatLon0.09_PT053H.grib2 2026-04-26 21:37 627K
20260426T18Z_MSC_RDPS_WindDir_AGL-80m_RLatLon0.09_PT053H.grib2 2026-04-26 21:37 613K
20260426T18Z_MSC_RDPS_WindDir_IsbL-0001_RLatLon0.09_PT053H.grib2 2026-04-26 21:37 287K
20260426T18Z_MSC_RDPS_WindDir_IsbL-0005_RLatLon0.09_PT053H.grib2 2026-04-26 21:37 346K
20260426T18Z_MSC_RDPS_WindDir_IsbL-0010_RLatLon0.09_PT053H.grib2 2026-04-26 21:37 385K
20260426T18Z_MSC_RDPS_WindDir_IsbL-0020_RLatLon0.09_PT053H.grib2 2026-04-26 21:37 415K
20260426T18Z_MSC_RDPS_WindDir_IsbL-0030_RLatLon0.09_PT053H.grib2 2026-04-26 21:37 406K
20260426T18Z_MSC_RDPS_WindDir_IsbL-0050_RLatLon0.09_PT053H.grib2 2026-04-26 21:37 414K
20260426T18Z_MSC_RDPS_WindDir_IsbL-0100_RLatLon0.09_PT053H.grib2 2026-04-26 21:37 415K
20260426T18Z_MSC_RDPS_WindDir_IsbL-0150_RLatLon0.09_PT053H.grib2 2026-04-26 21:37 416K
20260426T18Z_MSC_RDPS_WindDir_IsbL-0175_RLatLon0.09_PT053H.grib2 2026-04-26 21:37 438K
20260426T18Z_MSC_RDPS_WindDir_IsbL-0200_RLatLon0.09_PT053H.grib2 2026-04-26 21:37 448K
20260426T18Z_MSC_RDPS_WindDir_IsbL-0225_RLatLon0.09_PT053H.grib2 2026-04-26 21:37 450K
20260426T18Z_MSC_RDPS_WindDir_IsbL-0250_RLatLon0.09_PT053H.grib2 2026-04-26 21:37 454K
20260426T18Z_MSC_RDPS_WindDir_IsbL-0275_RLatLon0.09_PT053H.grib2 2026-04-26 21:37 475K
20260426T18Z_MSC_RDPS_WindDir_IsbL-0300_RLatLon0.09_PT053H.grib2 2026-04-26 21:37 472K
20260426T18Z_MSC_RDPS_WindDir_IsbL-0350_RLatLon0.09_PT053H.grib2 2026-04-26 21:37 492K
20260426T18Z_MSC_RDPS_WindDir_IsbL-0400_RLatLon0.09_PT053H.grib2 2026-04-26 21:37 512K
20260426T18Z_MSC_RDPS_WindDir_IsbL-0450_RLatLon0.09_PT053H.grib2 2026-04-26 21:37 526K
20260426T18Z_MSC_RDPS_WindDir_IsbL-0500_RLatLon0.09_PT053H.grib2 2026-04-26 21:37 545K
20260426T18Z_MSC_RDPS_WindDir_IsbL-0550_RLatLon0.09_PT053H.grib2 2026-04-26 21:37 559K
20260426T18Z_MSC_RDPS_WindDir_IsbL-0600_RLatLon0.09_PT053H.grib2 2026-04-26 21:37 588K
20260426T18Z_MSC_RDPS_WindDir_IsbL-0650_RLatLon0.09_PT053H.grib2 2026-04-26 21:37 629K
20260426T18Z_MSC_RDPS_WindDir_IsbL-0700_RLatLon0.09_PT053H.grib2 2026-04-26 21:37 671K
20260426T18Z_MSC_RDPS_WindDir_IsbL-0750_RLatLon0.09_PT053H.grib2 2026-04-26 21:37 717K
20260426T18Z_MSC_RDPS_WindDir_IsbL-0800_RLatLon0.09_PT053H.grib2 2026-04-26 21:37 784K
20260426T18Z_MSC_RDPS_WindDir_IsbL-0850_RLatLon0.09_PT053H.grib2 2026-04-26 21:37 852K
20260426T18Z_MSC_RDPS_WindDir_IsbL-0875_RLatLon0.09_PT053H.grib2 2026-04-26 21:37 878K
20260426T18Z_MSC_RDPS_WindDir_IsbL-0900_RLatLon0.09_PT053H.grib2 2026-04-26 21:37 897K
20260426T18Z_MSC_RDPS_WindDir_IsbL-0925_RLatLon0.09_PT053H.grib2 2026-04-26 21:37 903K
20260426T18Z_MSC_RDPS_WindDir_IsbL-0950_RLatLon0.09_PT053H.grib2 2026-04-26 21:37 907K
20260426T18Z_MSC_RDPS_WindDir_IsbL-0970_RLatLon0.09_PT053H.grib2 2026-04-26 21:37 912K
20260426T18Z_MSC_RDPS_WindDir_IsbL-0985_RLatLon0.09_PT053H.grib2 2026-04-26 21:37 920K
20260426T18Z_MSC_RDPS_WindDir_IsbL-1000_RLatLon0.09_PT053H.grib2 2026-04-26 21:37 933K
20260426T18Z_MSC_RDPS_WindDir_IsbL-1015_RLatLon0.09_PT053H.grib2 2026-04-26 21:37 949K
20260426T18Z_MSC_RDPS_WindGust-Max_AGL-10m_RLatLon0.09_PT053H.grib2 2026-04-26 21:37 943K
20260426T18Z_MSC_RDPS_WindGust-Min_AGL-10m_RLatLon0.09_PT053H.grib2 2026-04-26 21:37 1.0M
20260426T18Z_MSC_RDPS_WindGust_AGL-10m_RLatLon0.09_PT053H.grib2 2026-04-26 21:37 1.0M
20260426T18Z_MSC_RDPS_WindSpeed_AGL-10m_RLatLon0.09_PT053H.grib2 2026-04-26 21:37 836K
20260426T18Z_MSC_RDPS_WindSpeed_AGL-120m_RLatLon0.09_PT053H.grib2 2026-04-26 21:37 543K
20260426T18Z_MSC_RDPS_WindSpeed_AGL-40m_RLatLon0.09_PT053H.grib2 2026-04-26 21:37 537K
20260426T18Z_MSC_RDPS_WindSpeed_AGL-80m_RLatLon0.09_PT053H.grib2 2026-04-26 21:37 545K
20260426T18Z_MSC_RDPS_WindSpeed_IsbL-0001_RLatLon0.09_PT053H.grib2 2026-04-26 21:37 256K
20260426T18Z_MSC_RDPS_WindSpeed_IsbL-0005_RLatLon0.09_PT053H.grib2 2026-04-26 21:37 296K
20260426T18Z_MSC_RDPS_WindSpeed_IsbL-0010_RLatLon0.09_PT053H.grib2 2026-04-26 21:37 407K
20260426T18Z_MSC_RDPS_WindSpeed_IsbL-0020_RLatLon0.09_PT053H.grib2 2026-04-26 21:37 330K
20260426T18Z_MSC_RDPS_WindSpeed_IsbL-0030_RLatLon0.09_PT053H.grib2 2026-04-26 21:37 323K
20260426T18Z_MSC_RDPS_WindSpeed_IsbL-0050_RLatLon0.09_PT053H.grib2 2026-04-26 21:37 461K
20260426T18Z_MSC_RDPS_WindSpeed_IsbL-0100_RLatLon0.09_PT053H.grib2 2026-04-26 21:37 491K
20260426T18Z_MSC_RDPS_WindSpeed_IsbL-0150_RLatLon0.09_PT053H.grib2 2026-04-26 21:37 394K
20260426T18Z_MSC_RDPS_WindSpeed_IsbL-0175_RLatLon0.09_PT053H.grib2 2026-04-26 21:37 423K
20260426T18Z_MSC_RDPS_WindSpeed_IsbL-0200_RLatLon0.09_PT053H.grib2 2026-04-26 21:37 461K
20260426T18Z_MSC_RDPS_WindSpeed_IsbL-0225_RLatLon0.09_PT053H.grib2 2026-04-26 21:37 465K
20260426T18Z_MSC_RDPS_WindSpeed_IsbL-0250_RLatLon0.09_PT053H.grib2 2026-04-26 21:37 466K
20260426T18Z_MSC_RDPS_WindSpeed_IsbL-0275_RLatLon0.09_PT053H.grib2 2026-04-26 21:37 484K
20260426T18Z_MSC_RDPS_WindSpeed_IsbL-0300_RLatLon0.09_PT053H.grib2 2026-04-26 21:37 483K
20260426T18Z_MSC_RDPS_WindSpeed_IsbL-0350_RLatLon0.09_PT053H.grib2 2026-04-26 21:37 492K
20260426T18Z_MSC_RDPS_WindSpeed_IsbL-0400_RLatLon0.09_PT053H.grib2 2026-04-26 21:37 477K
20260426T18Z_MSC_RDPS_WindSpeed_IsbL-0450_RLatLon0.09_PT053H.grib2 2026-04-26 21:37 474K
20260426T18Z_MSC_RDPS_WindSpeed_IsbL-0500_RLatLon0.09_PT053H.grib2 2026-04-26 21:37 591K
20260426T18Z_MSC_RDPS_WindSpeed_IsbL-0550_RLatLon0.09_PT053H.grib2 2026-04-26 21:37 591K
20260426T18Z_MSC_RDPS_WindSpeed_IsbL-0600_RLatLon0.09_PT053H.grib2 2026-04-26 21:37 600K
20260426T18Z_MSC_RDPS_WindSpeed_IsbL-0650_RLatLon0.09_PT053H.grib2 2026-04-26 21:37 618K
20260426T18Z_MSC_RDPS_WindSpeed_IsbL-0700_RLatLon0.09_PT053H.grib2 2026-04-26 21:37 682K
20260426T18Z_MSC_RDPS_WindSpeed_IsbL-0750_RLatLon0.09_PT053H.grib2 2026-04-26 21:37 710K
20260426T18Z_MSC_RDPS_WindSpeed_IsbL-0800_RLatLon0.09_PT053H.grib2 2026-04-26 21:37 752K
20260426T18Z_MSC_RDPS_WindSpeed_IsbL-0850_RLatLon0.09_PT053H.grib2 2026-04-26 21:37 763K
20260426T18Z_MSC_RDPS_WindSpeed_IsbL-0875_RLatLon0.09_PT053H.grib2 2026-04-26 21:37 785K
20260426T18Z_MSC_RDPS_WindSpeed_IsbL-0900_RLatLon0.09_PT053H.grib2 2026-04-26 21:37 801K
20260426T18Z_MSC_RDPS_WindSpeed_IsbL-0925_RLatLon0.09_PT053H.grib2 2026-04-26 21:37 857K
20260426T18Z_MSC_RDPS_WindSpeed_IsbL-0950_RLatLon0.09_PT053H.grib2 2026-04-26 21:37 857K
20260426T18Z_MSC_RDPS_WindSpeed_IsbL-0970_RLatLon0.09_PT053H.grib2 2026-04-26 21:37 858K
20260426T18Z_MSC_RDPS_WindSpeed_IsbL-0985_RLatLon0.09_PT053H.grib2 2026-04-26 21:37 852K
20260426T18Z_MSC_RDPS_WindSpeed_IsbL-1000_RLatLon0.09_PT053H.grib2 2026-04-26 21:37 847K
20260426T18Z_MSC_RDPS_WindSpeed_IsbL-1015_RLatLon0.09_PT053H.grib2 2026-04-26 21:37 838K
20260426T18Z_MSC_RDPS_WindU_AGL-10m_RLatLon0.09_PT053H.grib2 2026-04-26 21:37 433K
20260426T18Z_MSC_RDPS_WindU_AGL-120m_RLatLon0.09_PT053H.grib2 2026-04-26 21:37 416K
20260426T18Z_MSC_RDPS_WindU_AGL-40m_RLatLon0.09_PT053H.grib2 2026-04-26 21:37 420K
20260426T18Z_MSC_RDPS_WindU_AGL-80m_RLatLon0.09_PT053H.grib2 2026-04-26 21:37 417K
20260426T18Z_MSC_RDPS_WindU_IsbL-0001_RLatLon0.09_PT053H.grib2 2026-04-26 21:37 296K
20260426T18Z_MSC_RDPS_WindU_IsbL-0005_RLatLon0.09_PT053H.grib2 2026-04-26 21:37 335K
20260426T18Z_MSC_RDPS_WindU_IsbL-0010_RLatLon0.09_PT053H.grib2 2026-04-26 21:37 303K
20260426T18Z_MSC_RDPS_WindU_IsbL-0020_RLatLon0.09_PT053H.grib2 2026-04-26 21:37 358K
20260426T18Z_MSC_RDPS_WindU_IsbL-0030_RLatLon0.09_PT053H.grib2 2026-04-26 21:37 355K
20260426T18Z_MSC_RDPS_WindU_IsbL-0050_RLatLon0.09_PT053H.grib2 2026-04-26 21:37 383K
20260426T18Z_MSC_RDPS_WindU_IsbL-0100_RLatLon0.09_PT053H.grib2 2026-04-26 21:37 348K
20260426T18Z_MSC_RDPS_WindU_IsbL-0150_RLatLon0.09_PT053H.grib2 2026-04-26 21:37 410K
20260426T18Z_MSC_RDPS_WindU_IsbL-0175_RLatLon0.09_PT053H.grib2 2026-04-26 21:37 436K
20260426T18Z_MSC_RDPS_WindU_IsbL-0200_RLatLon0.09_PT053H.grib2 2026-04-26 21:37 353K
20260426T18Z_MSC_RDPS_WindU_IsbL-0225_RLatLon0.09_PT053H.grib2 2026-04-26 21:37 355K
20260426T18Z_MSC_RDPS_WindU_IsbL-0250_RLatLon0.09_PT053H.grib2 2026-04-26 21:37 355K
20260426T18Z_MSC_RDPS_WindU_IsbL-0275_RLatLon0.09_PT053H.grib2 2026-04-26 21:37 371K
20260426T18Z_MSC_RDPS_WindU_IsbL-0300_RLatLon0.09_PT053H.grib2 2026-04-26 21:37 367K
20260426T18Z_MSC_RDPS_WindU_IsbL-0350_RLatLon0.09_PT053H.grib2 2026-04-26 21:37 477K
20260426T18Z_MSC_RDPS_WindU_IsbL-0400_RLatLon0.09_PT053H.grib2 2026-04-26 21:37 478K
20260426T18Z_MSC_RDPS_WindU_IsbL-0450_RLatLon0.09_PT053H.grib2 2026-04-26 21:37 478K
20260426T18Z_MSC_RDPS_WindU_IsbL-0500_RLatLon0.09_PT053H.grib2 2026-04-26 21:37 478K
20260426T18Z_MSC_RDPS_WindU_IsbL-0550_RLatLon0.09_PT053H.grib2 2026-04-26 21:37 461K
20260426T18Z_MSC_RDPS_WindU_IsbL-0600_RLatLon0.09_PT053H.grib2 2026-04-26 21:37 471K
20260426T18Z_MSC_RDPS_WindU_IsbL-0650_RLatLon0.09_PT053H.grib2 2026-04-26 21:37 488K
20260426T18Z_MSC_RDPS_WindU_IsbL-0700_RLatLon0.09_PT053H.grib2 2026-04-26 21:37 507K
20260426T18Z_MSC_RDPS_WindU_IsbL-0750_RLatLon0.09_PT053H.grib2 2026-04-26 21:37 533K
20260426T18Z_MSC_RDPS_WindU_IsbL-0800_RLatLon0.09_PT053H.grib2 2026-04-26 21:37 570K
20260426T18Z_MSC_RDPS_WindU_IsbL-0850_RLatLon0.09_PT053H.grib2 2026-04-26 21:37 619K
20260426T18Z_MSC_RDPS_WindU_IsbL-0875_RLatLon0.09_PT053H.grib2 2026-04-26 21:37 647K
20260426T18Z_MSC_RDPS_WindU_IsbL-0900_RLatLon0.09_PT053H.grib2 2026-04-26 21:37 657K
20260426T18Z_MSC_RDPS_WindU_IsbL-0925_RLatLon0.09_PT053H.grib2 2026-04-26 21:37 655K
20260426T18Z_MSC_RDPS_WindU_IsbL-0950_RLatLon0.09_PT053H.grib2 2026-04-26 21:37 653K
20260426T18Z_MSC_RDPS_WindU_IsbL-0970_RLatLon0.09_PT053H.grib2 2026-04-26 21:37 652K
20260426T18Z_MSC_RDPS_WindU_IsbL-0985_RLatLon0.09_PT053H.grib2 2026-04-26 21:37 651K
20260426T18Z_MSC_RDPS_WindU_IsbL-1000_RLatLon0.09_PT053H.grib2 2026-04-26 21:37 647K
20260426T18Z_MSC_RDPS_WindU_IsbL-1015_RLatLon0.09_PT053H.grib2 2026-04-26 21:37 779K
20260426T18Z_MSC_RDPS_WindV_AGL-10m_RLatLon0.09_PT053H.grib2 2026-04-26 21:37 431K
20260426T18Z_MSC_RDPS_WindV_AGL-120m_RLatLon0.09_PT053H.grib2 2026-04-26 21:37 529K
20260426T18Z_MSC_RDPS_WindV_AGL-40m_RLatLon0.09_PT053H.grib2 2026-04-26 21:37 532K
20260426T18Z_MSC_RDPS_WindV_AGL-80m_RLatLon0.09_PT053H.grib2 2026-04-26 21:37 530K
20260426T18Z_MSC_RDPS_WindV_IsbL-0001_RLatLon0.09_PT053H.grib2 2026-04-26 21:37 247K
20260426T18Z_MSC_RDPS_WindV_IsbL-0005_RLatLon0.09_PT053H.grib2 2026-04-26 21:37 290K
20260426T18Z_MSC_RDPS_WindV_IsbL-0010_RLatLon0.09_PT053H.grib2 2026-04-26 21:37 304K
20260426T18Z_MSC_RDPS_WindV_IsbL-0020_RLatLon0.09_PT053H.grib2 2026-04-26 21:37 322K
20260426T18Z_MSC_RDPS_WindV_IsbL-0030_RLatLon0.09_PT053H.grib2 2026-04-26 21:37 319K
20260426T18Z_MSC_RDPS_WindV_IsbL-0050_RLatLon0.09_PT053H.grib2 2026-04-26 21:37 349K
20260426T18Z_MSC_RDPS_WindV_IsbL-0100_RLatLon0.09_PT053H.grib2 2026-04-26 21:37 438K
20260426T18Z_MSC_RDPS_WindV_IsbL-0150_RLatLon0.09_PT053H.grib2 2026-04-26 21:37 407K
20260426T18Z_MSC_RDPS_WindV_IsbL-0175_RLatLon0.09_PT053H.grib2 2026-04-26 21:37 337K
20260426T18Z_MSC_RDPS_WindV_IsbL-0200_RLatLon0.09_PT053H.grib2 2026-04-26 21:37 349K
20260426T18Z_MSC_RDPS_WindV_IsbL-0225_RLatLon0.09_PT053H.grib2 2026-04-26 21:37 352K
20260426T18Z_MSC_RDPS_WindV_IsbL-0250_RLatLon0.09_PT053H.grib2 2026-04-26 21:37 352K
20260426T18Z_MSC_RDPS_WindV_IsbL-0275_RLatLon0.09_PT053H.grib2 2026-04-26 21:37 367K
20260426T18Z_MSC_RDPS_WindV_IsbL-0300_RLatLon0.09_PT053H.grib2 2026-04-26 21:37 364K
20260426T18Z_MSC_RDPS_WindV_IsbL-0350_RLatLon0.09_PT053H.grib2 2026-04-26 21:37 372K
20260426T18Z_MSC_RDPS_WindV_IsbL-0400_RLatLon0.09_PT053H.grib2 2026-04-26 21:37 372K
20260426T18Z_MSC_RDPS_WindV_IsbL-0450_RLatLon0.09_PT053H.grib2 2026-04-26 21:37 476K
20260426T18Z_MSC_RDPS_WindV_IsbL-0500_RLatLon0.09_PT053H.grib2 2026-04-26 21:37 475K
20260426T18Z_MSC_RDPS_WindV_IsbL-0550_RLatLon0.09_PT053H.grib2 2026-04-26 21:37 475K
20260426T18Z_MSC_RDPS_WindV_IsbL-0600_RLatLon0.09_PT053H.grib2 2026-04-26 21:37 484K
20260426T18Z_MSC_RDPS_WindV_IsbL-0650_RLatLon0.09_PT053H.grib2 2026-04-26 21:37 501K
20260426T18Z_MSC_RDPS_WindV_IsbL-0700_RLatLon0.09_PT053H.grib2 2026-04-26 21:37 518K
20260426T18Z_MSC_RDPS_WindV_IsbL-0750_RLatLon0.09_PT053H.grib2 2026-04-26 21:37 541K
20260426T18Z_MSC_RDPS_WindV_IsbL-0800_RLatLon0.09_PT053H.grib2 2026-04-26 21:37 575K
20260426T18Z_MSC_RDPS_WindV_IsbL-0850_RLatLon0.09_PT053H.grib2 2026-04-26 21:37 621K
20260426T18Z_MSC_RDPS_WindV_IsbL-0875_RLatLon0.09_PT053H.grib2 2026-04-26 21:37 640K
20260426T18Z_MSC_RDPS_WindV_IsbL-0900_RLatLon0.09_PT053H.grib2 2026-04-26 21:37 654K
20260426T18Z_MSC_RDPS_WindV_IsbL-0925_RLatLon0.09_PT053H.grib2 2026-04-26 21:37 653K
20260426T18Z_MSC_RDPS_WindV_IsbL-0950_RLatLon0.09_PT053H.grib2 2026-04-26 21:37 652K
20260426T18Z_MSC_RDPS_WindV_IsbL-0970_RLatLon0.09_PT053H.grib2 2026-04-26 21:37 791K
20260426T18Z_MSC_RDPS_WindV_IsbL-0985_RLatLon0.09_PT053H.grib2 2026-04-26 21:37 787K
20260426T18Z_MSC_RDPS_WindV_IsbL-1000_RLatLon0.09_PT053H.grib2 2026-04-26 21:37 782K
20260426T18Z_MSC_RDPS_WindV_IsbL-1015_RLatLon0.09_PT053H.grib2 2026-04-26 21:37 823K